Regional Weather Roundup
Issued by NWS San Angelo, TX

Home | Current Version | Previous Version | Text Only | Print | Product List | Glossary Off
Versions: 1 2 3 4 5 6 7 8 9 10 11 12 13 14 15 16 17 18 19 20 21 22 23 24 25 26 27 28 29 30 31 32 33 34 35 36 37 38 39 40 41 42 43 44 45 46 47 48 49 50

000
ASUS44 KSJT 260711
RWRSJT
WEST CENTRAL TEXAS REGIONAL WEATHER ROUNDUP
NATIONAL WEATHER SERVICE SAN ANGELO TX
200 AM CDT THU MAY 26 2016

NOTE: "FAIR" INDICATES FEW OR NO CLOUDS BELOW 12,000 FEET WITH NO
SIGNIFICANT WEATHER AND/OR OBSTRUCTIONS TO VISIBILITY.

TXZ049-054-064>066-071>073-076>078-098-099-113-114-127-128-139-140-
154-155-168>170-260800
...LOCATIONS ACROSS WEST CENTRAL TEXAS...

CITY           SKY/WX    TMP DP  RH WIND       PRES   REMARKS
SAN ANGELO     LGT RAIN  81  72  74 SW17G25   29.95R
ABILENE        PTCLDY    76  73  91 S14       29.91S FOG
DYESS AFB      CLEAR     76  69  76 SE13      29.88S
JUNCTION       CLOUDY    78  73  84 S7        29.94S
SWEETWATER     CLEAR     76  72  86 S14       29.95S
BROWNWOOD      CLOUDY    77  75  94 SE9       29.93R
COLEMAN        CLOUDY    78  73  86 S6        29.94S
SONORA         CLOUDY    79  73  83 S14       30.01S
OZONA          FAIR      79  70  73 S20G31    29.96F
BRADY          NOT AVBL
$$

TEXAS PANHANDLE/OKLAHOMA PANHANDLE

CITY           SKY/WX    TMP DP  RH WIND       PRES   REMARKS
AMARILLO       CLEAR     62  32  32 S9        29.91R
BORGER         CLEAR     69  31  24 S5        29.85F
CANADIAN       CLEAR     73  54  51 S14G21    29.82S
DALHART        CLEAR     56  34  43 SW6       29.90F
DUMAS          SUNNY     55  34  44 SW10      29.87F
GUYMON         NOT AVBL
HEREFORD       SUNNY     54  35  48 S13       29.93S
PAMPA          SUNNY     61  47  61 S10       29.87F
PERRYTON       CLEAR     59  52  76 SE10      29.83F
$$

SOUTHERN PANHANDLE/SOUTH PLAINS/ROLLING PLAINS

CITY           SKY/WX    TMP DP  RH WIND       PRES   REMARKS
LUBBOCK        PTCLDY    72  61  68 S13       29.91F
SNYDER           N/A     76  71  85 SW10      29.95S
CHILDRESS      CLEAR     76  70  82 S15       29.85S
SEMINOLE       MOSUNNY   73  63  70 S10       29.94R
$$

PERMIAN BASIN

CITY           SKY/WX    TMP DP  RH WIND       PRES   REMARKS
MIDLAND        PTCLDY    78  66  66 S14G24    29.93S
ODESSA         CLOUDY    77  67  71 S9        29.95R
WINK           PTCLDY    76  65  68 MISG      29.88F
$$

FAR WEST/SOUTHWEST MOUNTAINS/TRANS PECOS

CITY           SKY/WX    TMP DP  RH WIND       PRES   REMARKS
ALPINE         PTSUNNY   77  43  29 S16G23    30.09S
DRYDEN           N/A     80  70  71 S7        29.91S
EL PASO        PTCLDY    78  15   9 W17G30    29.97S
FORT STOCKTON  CLOUDY    75  68  78 SE5       29.91S
GUADALUPE PASS NOT AVBL
MARFA          CLOUDY    71  44  37 S9        30.08S
PECOS          LGT RAIN  75  54  48 S9G16     29.91R
$$

DALLAS/FORT WORTH METROPLEX

CITY           SKY/WX    TMP DP  RH WIND       PRES   REMARKS
DFW AIRPORT    CLOUDY    79  72  79 S13       29.90F
FTW MEACHAM    PTCLDY    79  73  82 S13       29.89F
DAL-EXECUTIVE  PTCLDY    77  71  82 S9        29.92S
GRAND PRAIRIE  PTCLDY    78  71  79 S9        29.92F
ADDISON        CLOUDY    79  74  85 S12       29.93F
MESQUITE       MOSUNNY   77  73  87 SE9       29.94F
LANCASTER      MOSUNNY   77  70  79 SE7       29.94F
$$

NORTH CENTRAL TEXAS

CITY           SKY/WX    TMP DP  RH WIND       PRES   REMARKS
SHRMAN/DENISON SUNNY     74  68  81 S10       29.93S
GAINESVILLE    MOCLDY    76  73  89 S10       29.92F
BRIDGEPORT     CLOUDY    79  75  87 S7        29.91F
DENTON         CLOUDY    77  73  87 S12       29.90F
WAXAHACHIE     CLOUDY    76  73  91 S10       29.93F
GRANBURY       CLOUDY    79  74  84 SE9       29.91F
$$

WESTERN NORTH TEXAS

CITY           SKY/WX    TMP DP  RH WIND       PRES   REMARKS
WICHITA FALLS  CLEAR     76  73  91 S13       29.85F FOG
VERNON         SUNNY     79  70  73 S15       29.86S
BRECKENRIDGE   SUNNY     78  74  87 S12       29.88F FOG
COMANCHE       PTCLDY    75  75 100 S8        29.94R
$$

CENTRAL AND SOUTH CENTRAL TEXAS

CITY           SKY/WX    TMP DP  RH WIND       PRES   REMARKS
AUSTIN/BERGSTM CLOUDY    78  75  90 S7        29.93F
WACO           CLOUDY    78  72  81 S16       29.93F
HILLSBORO      CLOUDY    75  72  89 SE14      29.93F
TEMPLE         CLOUDY    77  74  90 S14G21    29.94F
KILLEEN-GRAY   CLOUDY    76  74  91 SE12      29.93F
FORT HOOD      CLOUDY    75  75  98 S12       29.92F
GEORGETOWN     CLOUDY    79  72  78 S12       29.93F
LAGO VISTA     CLOUDY    77  74  88 S7        29.96F
SAN MARCOS     CLOUDY    77  73  88 S7        29.95F
NEW BRAUNFELS  CLOUDY    78  75  90 S8        29.93F
RANDOLPH AFB   CLOUDY    78  78 100 S10       29.94F
SAN ANTONIO    CLOUDY    78  74  87 S10       29.95F
STINSON        CLOUDY    80  75  84 SE6       29.93S
PLEASANTON     NOT AVBL
LA GRANGE        N/A     79  77  94 S5        29.92F FOG
GIDDINGS       CLOUDY    76  74  92 S6        29.97F
$$

EAST TEXAS

CITY           SKY/WX    TMP DP  RH WIND       PRES   REMARKS
PARIS          PTCLDY    77  66  69 S10       29.96F
CLARKSVILLE    NOT AVBL
TYLER          CLOUDY    78  72  81 S13       29.98F
LONGVIEW       CLOUDY    76  73  91 SE10      30.00F
PALESTINE      PTSUNNY   77  74  89 SE7       29.99F
NACOGDOCHES    CLOUDY    75  72  88 SE9       30.02F
$$

TEXAS HILL COUNTRY AND EDWARDS PLATEAU

CITY           SKY/WX    TMP DP  RH WIND       PRES   REMARKS
LLANO          CLOUDY    79  75  89 CALM      29.97R
HORSESHOE BAY  CLOUDY    79  74  86 S7        29.94F
KERRVILLE      CLOUDY    76  74  93 S7        29.97F FOG
FREDERICKSBRG  CLOUDY    77  73  87 SW5       29.97F
ROCKSPRINGS    PTSUNNY   77  75  94 S12G17    30.02S
HONDO          CLOUDY    78  76  93 SE8       29.97R
UVALDE         CLOUDY    77  75  94 SE3       29.95S
DEL RIO        LGT RAIN  82  75  79 SE15G25   29.89F
$$

SOUTHEAST TEXAS

CITY           SKY/WX    TMP DP  RH WIND       PRES   REMARKS
COLLEGE STN    CLOUDY    77  75  93 SE10      29.95F
CALDWELL       CLOUDY    75  75 100 SE7       29.97F
CROCKETT       CLOUDY    75  73  94 SE6       30.03S
BRENHAM        CLOUDY    79  77  94 SE8       29.96F
HUNTSVILLE     CLOUDY    78  73  84 SE5       29.99F
CONROE         CLOUDY    77  74  90 SE6       30.00F
HOUSTON BUSH   CLOUDY    79  74  84 S9        29.99F
HOUSTON HOBBY  MOCLDY    80  77  90 SE5       29.99S
PERLAND        CLOUDY    82  77  84 S8        30.00S
WHARTON        MOSUNNY   78  76  94 S9        29.97S
$$

THE UPPER TEXAS COAST

CITY           SKY/WX    TMP DP  RH WIND       PRES   REMARKS
ORANGE         PTSUNNY   79  74  85 S7        30.06F
PORT ARTHUR    MOCLDY    79  75  87 SE9       30.01F
GALVESTON      CLOUDY    80  79  96 S14       30.01F
ANGLETON       CLOUDY    81  77  88 S17       29.97F
BAY CITY       CLOUDY    80  79  95 S10       29.97F
$$

TEXAS COASTAL BEND, RIO GRANDE PLAINS DEEP SOUTH TEXAS

CITY           SKY/WX    TMP DP  RH WIND       PRES   REMARKS
VICTORIA       CLOUDY    80  77  90 SE16      29.94F
BEEVILLE       CLOUDY    80  80 100 SE12      29.95S
ROCKPORT       CLOUDY    82  78  88 SE14G21   29.94F
PORT ARANSAS   CLOUDY    81  81 100 SE15G22   29.94F
PORT LAVACA    CLOUDY    80  78  95 SE12      29.96F
CORPUS CHRISTI CLOUDY    82  78  88 S13       29.94S
KINGSVILLE NAS CLOUDY    81  81 100 SE12      29.92F
COTULLA        CLOUDY    82  76  81 SE10      29.94R
LAREDO         CLOUDY    80  76  87 S6        29.94S
BROWNSVILLE    TSTM      82  80  94 E5        30.01S
PORT ISABEL    TSTM      82  81  96 S9        30.01S FOG
HEBBRONVILLE   PTSUNNY   78  76  92 S14G21    29.94F
MCALLEN        CLOUDY    78  72  81 SE12      29.93R
WESLACO          N/A     77  70  79 SE14G22   29.89S
FALFURRIAS     PTSUNNY   81  78  90 SE7       29.92F
EDINBURG       PTSUNNY   79  71  75 SE16      29.88F
$$



USA.gov is the U.S. government's official web portal to all federal, state and local government web resources and services.